Hourly Weather Roundup
Issued by NWS Central Illinois

Home | Current Version | Previous Version | Text Only | Print | Product List | Glossary On
Versions: 1 2 3 4 5 6 7 8 9 10 11 12 13 14 15 16 17 18 19 20 21 22 23 24 25 26 27 28 29 30 31 32 33 34 35 36 37 38 39 40 41 42 43 44 45 46 47 48 49 50
000
NZUS43 KILX 161610
HWRILX

Area Weather Roundup
National Weather Service Lincoln IL
1000 AM CST TUE JAN 16 2018

NOTE:  "FAIR" indicates few or no clouds below 12,000 feet, with
       no sigificant weather and/or obstructions to visibility.


CITY           SKY/WX    TMP DP  RH WIND       PRES   REMARKS
Bloomington    LGT SNOW   3  -3  76 W12       30.55R WCI -13
Champaign      CLOUDY     1  -5  75 W17       30.56R WCI -19
Danville       FLURRIES   2  -5  73 W13       30.52R WCI -16
Decatur        LGT SNOW   0  -5  79 W18       30.59R WCI -21
Effingham      PTSUNNY    2  -5  71 W10G17    30.64R WCI -13
Flora          FAIR       4  -5  66 W12         N/A  WCI -12
Galesburg      LGT SNOW   3  -1  82 W13       30.60S WCI -14
Jacksonville   FLURRIES  -1  -8  72 W13       30.65S WCI -19
Lacon          LGT SNOW   5  -1  77 W8        30.57S WCI  -8
Lawrenceville  FAIR       2  -7  66 W10       30.66R WCI -14
Litchfield     LGT SNOW   1  -5  74 W12       30.64R WCI -16
$$


CITY           SKY/WX    TMP DP  RH WIND       PRES   REMARKS
Lincoln        LGT SNOW   1  -5  75 W6        30.61S WCI -10
Macomb         FLURRIES   0  -5  78 W13       30.65S WCI -18
Mattoon        PTSUNNY    1  -6  72 W15       30.57S WCI -18
Mt Carmel AP   FAIR       2  -7  65 W9        30.66R WCI -13
Olney-Noble AP FAIR       2  -9  59 W9        30.66R WCI -13
Paris AP       CLOUDY     1  -5  77 W15       30.59R HAZE    WCI -19
Peoria         LGT SNOW   2  -4  76 W12       30.60R WCI -15
Pontiac        LGT SNOW   5   2  88 W18       30.55R WCI -15
Rantoul        LGT SNOW   4  -1  78 W17       30.54S WCI -15
Robinson       FAIR       1  -7  71 W13       30.65R WCI -17
Springfield    CLOUDY     2  -5  72 W13       30.63S HAZE    WCI -15
Taylorville    LGT SNOW   0  -7  73 W15       30.63S WCI -19
$$

...REGIONAL REPORTS...


CITY           SKY/WX    TMP DP  RH WIND       PRES   REMARKS
Chicago O`Hare FAIR      19  13  77 NW15      30.44R WCI   5
Kankakee       MIX PCPN   7   1  79 W16       30.52R WCI -12
Moline         CLOUDY    10   3  73 NW13      30.60R WCI  -5
Mount Sterling MOSUNNY   -2  -9  71 W13       30.64R WCI -21
Mount Vernon   FAIR       7  -4  60 W10       30.67R WCI  -8
Pittsfield     FLURRIES   0  -8  71 W10       30.68R WCI -17
Quincy         PTSUNNY   -2  -9  72 W12       30.66R WCI -20
Rockford       PTSUNNY   14   8  77 NW14      30.52R WCI  -1
$$


CITY           SKY/WX    TMP DP  RH WIND       PRES   REMARKS
Burlington     CLOUDY     2  -6  69 NW10      30.63R WCI -14
Cedar Rapids   LGT SNOW   5  -1  76 NW16      30.61R WCI -14
Des Moines     LGT SNOW  -1  -7  75 NW15      30.71R VSB 1   WCI -21
Kirksville     PTSUNNY    0  -6  76 NW10      30.67R WCI -16
Ottumwa        CLOUDY     1  -6  72 NW21      30.67R HAZE    WCI -21
St Louis       FLURRIES   2  -5  72 W17       30.68R WCI -18
$$


CITY           SKY/WX    TMP DP  RH WIND       PRES   REMARKS
Terre Haute    CLOUDY     0  -8  69 W8        30.60R WCI -14
Evansville     FAIR       4  -5  66 NW7       30.68R WCI  -8
Indianapolis   FAIR      -1  -7  75 SW13      30.55R WCI -19
Lafayette      FLURRIES   2  -3  80 W10       30.53R WCI -14
Madison        FAIR      14   8  77 NW8       30.52R WCI   3
Milwaukee      PTSUNNY   20  10  65 N13G20    30.45R WCI   7
$$





USA.gov is the U.S. government's official web portal to all federal, state and local government web resources and services.